CDT,Max TemperatureF,Mean TemperatureF,Min TemperatureF,Max Dew PointF,MeanDew PointF,Min DewpointF,Max Humidity, Mean Humidity, Min Humidity, Max Sea Level PressureIn, Mean Sea Level PressureIn, Min Sea Level PressureIn, Max VisibilityMiles, Mean VisibilityMiles, Min VisibilityMiles, Max Wind SpeedMPH, Mean Wind SpeedMPH, Max Gust SpeedMPH,PrecipitationIn, CloudCover, Events, WindDirDegrees
2012-9-1,89,76,62,64,54,46,61,48,35,30.07,29.86,29.66,10,10,8,30,15,38,0.00,0,Rain-Thunderstorm,145
2012-9-2,80,70,60,64,58,39,94,73,23,29.85,29.77,29.68,10,10,5,15,8,18,0.09,2,Rain-Thunderstorm,263
2012-9-3,78,62,46,55,46,37,100,58,27,29.90,29.86,29.84,10,10,9,15,5,23,0.00,1,Rain,187
2012-9-4,78,64,50,55,47,37,100,64,24,29.90,29.85,29.81,10,10,4,18,7,25,0.00,0,,278
2012-9-5,73,60,46,48,44,39,87,58,31,29.93,29.89,29.86,10,10,10,23,10,32,0.00,2,,287
2012-9-6,68,57,44,54,49,41,100,75,46,30.08,29.97,29.89,10,10,3,18,6,26,0.05,4,Rain,317
2012-9-7,66,52,37,46,42,37,100,72,40,30.18,30.12,30.05,10,10,10,17,7,23,0.00,3,,290
2012-9-8,68,55,42,45,37,32,87,55,26,30.19,30.10,29.98,10,10,10,22,11,29,0.00,0,,327
2012-9-9,77,58,39,41,38,32,93,51,21,30.19,30.04,29.78,10,10,10,20,8,26,0.00,0,,167
2012-9-10,86,67,48,46,42,37,76,42,20,29.77,29.62,29.56,10,10,5,14,9,20,0.00,0,,186
2012-9-11,68,55,41,46,36,27,72,43,23,29.97,29.79,29.60,10,10,9,25,11,32,0.00,0,Rain,294
2012-9-12,66,52,39,28,23,14,61,38,13,30.23,30.10,29.97,10,10,9,40,16,50,0.00,0,,272
2012-9-13,68,50,32,36,28,25,81,47,20,30.30,30.26,30.20,10,10,10,14,5,,0.00,1,,196
2012-9-14,73,52,32,37,33,28,100,52,22,30.33,30.25,30.09,10,10,10,12,7,18,0.00,0,,167
2012-9-15,77,64,50,41,37,36,66,44,22,30.08,29.95,29.87,10,10,10,18,10,20,0.00,0,,210
2012-9-16,53,48,42,46,42,36,100,78,51,30.17,30.11,29.98,10,10,5,16,7,22,0.07,3,Rain,347
2012-9-17,55,44,32,45,34,27,100,74,35,30.16,30.11,30.06,10,7,0,18,5,22,0.00,4,Fog-Rain-Thunderstorm,308
2012-9-18,73,56,39,45,36,32,87,51,26,30.05,29.81,29.61,10,10,8,17,8,23,0.00,1,,203
2012-9-19,64,56,48,41,34,23,76,45,23,29.96,29.81,29.62,10,10,10,34,19,47,0.00,0,,310
2012-9-20,62,47,32,37,32,28,93,54,29,29.99,29.93,29.86,10,10,10,15,8,20,0.00,1,,287
2012-9-21,62,47,32,39,30,19,100,56,24,30.20,29.97,29.88,10,10,10,33,10,41,0.00,0,,345
2012-9-22,53,36,19,28,22,18,93,58,28,30.37,30.30,30.21,10,10,5,13,5,16,0.00,0,,306
2012-9-23,64,45,26,32,24,19,100,53,18,30.31,30.21,30.02,10,10,4,13,4,16,0.00,0,,196
2012-9-24,75,57,39,45,33,27,76,45,27,30.02,29.88,29.80,10,10,10,18,9,22,0.00,0,,297
2012-9-25,62,46,30,37,34,28,100,72,37,30.03,29.98,29.93,10,10,1,9,6,,0.00,0,,99
2012-9-26,69,48,28,39,34,27,100,62,28,30.13,30.09,30.04,10,10,6,12,6,16,0.00,0,,128
2012-9-27,75,60,44,43,39,36,76,52,29,30.11,30.09,30.06,10,10,8,13,8,18,0.00,0,,143
2012-9-28,77,57,37,46,41,36,93,59,28,30.15,30.09,30.04,10,9,5,10,5,,0.00,0,,118
2012-9-29,84,66,48,45,38,32,72,39,20,30.05,29.97,29.87,10,10,9,23,10,31,0.00,0,,166
2012-9-30,73,60,46,48,42,36,88,53,32,30.08,29.93,29.87,10,10,9,23,13,32,0.01,0,Rain,284